Regional Weather Roundup
Issued by NWS

Home | Current Version | Previous Version | Graphics & Text | Print | Product List | Glossary On
Versions: 1 2 3 4 5 6 7 8 9 10 11 12 13 14 15 16 17 18 19 20 21 22 23 24 25 26 27 28 29 30 31 32 33 34 35 36 37 38 39 40 41 42 43 44 45 46 47 48 49 50
000
ASUS43 KDTX 281310
RWRMI
MICHIGAN HOURLY REGIONAL WEATHER ROUNDUP
NATIONAL WEATHER SERVICE DETROIT/PONTIAC MI
900 AM EDT TUE JUL 28 2015

NOTE: "FAIR" INDICATES FEW OR NO CLOUDS BELOW 12,000 FEET WITH NO
SIGNIFICANT WEATHER AND/OR OBSTRUCTION TO VISIBILITY.

MIZ047>049-052>055-059>063-066>070-074>076-081>083-281400-
SOUTHEAST LOWER MICHIGAN

CITY           SKY/WX    TMP DP  RH WIND       PRES   REMARKS
ADRIAN         SUNNY     75  67  76 E3        30.06S
ALMA           SUNNY     74  69  86 CALM      30.06S
ANN ARBOR      SUNNY     77  64  64 E3        30.06S
BAD AXE        SUNNY     75  67  76 CALM      30.06S
DETROIT CITY   SUNNY     79  64  60 N3        30.06R
DETROIT        SUNNY     79  65  62 CALM      30.06R
FLINT          SUNNY     77  65  66 CALM      30.06S
GROSSE ILE     SUNNY     75  66  73 NE3       30.04S
HILLSDALE      SUNNY     75  67  77 CALM      30.07R
HOWELL         SUNNY     73  64  73 CALM      30.07S

CITY           SKY/WX    TMP DP  RH WIND       PRES   REMARKS
JACKSON        SUNNY     73  66  78 E3        30.07R
LAMBERTVILLE   SUNNY     77  69  77 CALM      30.05S
LANSING        SUNNY     77  64  64 S3        30.07S
LAPEER         NOT AVBL
MASON          SUNNY     71  65  81 CALM      30.07S
MONROE         SUNNY     76  68  76 CALM      30.04S
MT. CLEMENS    SUNNY     75  66  73 NE1       30.04R
PONTIAC        MOSUNNY   77  66  68 CALM      30.06S
PORT HOPE        N/A     76  67  73 CALM      30.04S
PORT HURON     SUNNY     73  68  83 CALM      30.06S
TRI CITIES     SUNNY     74  66  76 CALM      30.06S
YPSILANTI      SUNNY     80  67  64 CALM      30.07R
$$
MIZ043>046-050>051-056>058-064>065-071>073-077>080-281400-
SOUTHWEST LOWER MICHIGAN

CITY           SKY/WX    TMP DP  RH WIND       PRES   REMARKS
BATTLE CREEK   SUNNY     76  63  64 E3        30.06S
BENTON HARBOR  SUNNY     74  63  68 SE6       30.03R
BIG RAPIDS     SUNNY     70  63  78 CALM      30.06R
COLDWATER      SUNNY     71  64  80 E5        30.06R
HOLLAND        SUNNY     75  65  70 SE5       30.05R
GRAND RAPIDS   MOSUNNY   74  65  73 S5        30.05S
KALAMAZOO      SUNNY     75  63  66 CALM      30.05S
MARSHALL       SUNNY     72  65  78 CALM      30.06R
MUSKEGON       MOSUNNY   77  62  59 SE7       30.04R
$$
MIZ016>042-281400-
NORTHERN LOWER MICHIGAN

CITY           SKY/WX    TMP DP  RH WIND       PRES   REMARKS
ALPENA         SUNNY     75  65  70 SW3       30.05S
BEAVER ISLAND  SUNNY     75  65  69 CALM      30.04R
BELLAIRE       SUNNY     71  64  77 CALM      30.04S
CADILLAC       SUNNY     76  64  66 CALM      30.07R
CHARLEVOIX     SUNNY     73  61  65 SE5       30.06S
FRANKFORT      SUNNY     74  62  65 CALM      30.03S
GAYLORD        SUNNY     78  60  53 CALM      30.08S
GRAYLING       SUNNY     71  61  69 CALM      30.07S
HARBOR SPRINGS SUNNY     73  63  70 E3        30.04S
HOUGHTON LAKE  SUNNY     72  63  73 E5        30.07S
MANISTEE       SUNNY     66  59  77 E5        30.04R
OSCODA         SUNNY     74  61  63 CALM      30.05S
PELLSTON       SUNNY     73  62  68 S3        30.04F
TRAVERSE CITY  SUNNY     74  62  66 CALM      30.03R
$$
MIZ007>008-015-281400-
EASTERN UPPER MICHIGAN

CITY           SKY/WX    TMP DP  RH WIND       PRES   REMARKS
KINROSS        SUNNY     75  64  69 SW3       30.03S
MACKINAC ISLAN SUNNY     73  63  71 S3        30.03S
$$
MIZ004>006-011>014-085-281400-
CENTRAL UPPER MICHIGAN

CITY           SKY/WX    TMP DP  RH WIND       PRES   REMARKS
MANISTIQUE     SUNNY     70  64  83 SE6       30.02S
ESCANABA       SUNNY     72  66  83 SE3       30.00F
MENOMINEE      SUNNY     75  63  64 S6        30.00S
SAWYER-GWINN   SUNNY     70  63  78 S9        30.01F
$$
MIZ001>003-009>011-084-281400-
WESTERN UPPER MICHIGAN

CITY           SKY/WX    TMP DP  RH WIND       PRES   REMARKS
IRON MOUNTAIN  SUNNY     71  63  75 VRB5      30.01R
HOUGHTON       SUNNY     68  63  84 SE3       29.96S
COPPER HARBOR    N/A     75  64  68 SW3       29.94F
IRONWOOD       PTSUNNY   72  63  73 SE9       29.89F
$$

ABBREVIATIONS USED IN REMARKS
   TC - TEMPERATURE IN CELSIUS
  WCI - WIND CHILL INDEX
   HX - HEAT INDEX
  VSB - VISIBILITY




USA.gov is the U.S. government's official web portal to all federal, state and local government web resources and services.